Home   Weather   Kolkata   Past weeks

Flag for India Past Weather in Kolkata, West Bengal, India — Yesterday and Last 2 Weeks

Now
81 °F

Haze.


Feels Like: 85 °F
Forecast: 81 / 94 °F
Wind: 5 mph from Southeast

Location: Calcutta / Dum Dum

Current Time: May 1, 2017 at 8:31:14 am

Latest Report: May 1, 2017 at 8:00 am


Visibility: 2 mi

Pressure: 29.86 "Hg

Humidity: 74%

Dew Point: 72 °F

Location of KolkataLocation

Past Weather in Kolkata — Graph

°F

Kolkata Temperature Yesterday

Maximum temperature yesterday: 99 °F (at 1:30 pm)
Minimum temperature yesterday: 73 °F (at 9:30 pm)
Average temperature yesterday: 87 °F

High & Low Weather Summary for the Past Weeks

 TemperatureHumidityPressure
High100 °F (Apr 26, 1:30 pm)89% (Apr 16, 6:30 am)29.83 "Hg (Apr 16, 6:30 am)
Low73 °F (Apr 30, 9:30 pm)35% (Apr 26, 1:30 pm)29.53 "Hg (Apr 21, 4:00 pm)
Average87 °F72%29.68 "Hg
* Reported Apr 16 6:30 am — May 1 7:00 am, Kolkata, Weather by CustomWeather, © 2017

Note: Actual official high and low records may vary slightly from our data, if they occured in-between our weather recording intervals... More about our weather records

Advertising

Kolkata Weather History for the Previous 24 Hours

Scroll right to see more
 ConditionsComfort  
Time TempWeatherWind HumidityBarometerVisibility
7:00 am
Mon, May 1
79 °FScattered clouds.12 mph79%29.83 "Hg2 mi
6:30 am77 °FScattered clouds.9 mph83%29.77 "Hg2 mi
6:00 am75 °FScattered clouds.10 mph89%29.77 "Hg2 mi
5:30 am73 °FPassing clouds.10 mph89%29.77 "Hg2 mi
5:00 am73 °FPassing clouds.10 mph89%29.77 "Hg2 mi
4:30 am73 °FPassing clouds.8 mph89%29.77 "Hg2 mi
4:00 am73 °FPassing clouds.9 mph89%29.74 "Hg2 mi
3:30 am73 °FPassing clouds.7 mph89%29.77 "Hg2 mi
3:00 am73 °FPassing clouds.7 mph89%29.80 "Hg2 mi
2:30 am73 °FPassing clouds.6 mph89%29.80 "Hg2 mi
2:00 am73 °FPassing clouds.6 mph89%29.83 "Hg2 mi
1:30 am73 °FPassing clouds.3 mph89%29.80 "Hg2 mi
1:00 am73 °FPassing clouds.3 mph89%29.80 "Hg2 mi
12:30 am73 °FThunderstorms. Partly cloudy.7 mph89%29.77 "Hg2 mi
12:00 am73 °FThunderstorms. Partly cloudy.8 mph89%29.83 "Hg2 mi
11:30 pm
Sun, Apr 30
73 °FThunderstorms. Partly cloudy.3 mph89%29.83 "Hg2 mi
11:00 pm73 °FThunderstorms. Partly cloudy.9 mph89%29.83 "Hg2 mi
10:30 pm73 °FThunderstorms. Partly cloudy.12 mph89%29.83 "Hg1 mi
10:00 pm73 °FThunderstorms. Mostly cloudy.17 mph89%29.83 "Hg1 mi
9:30 pm73 °FThunderstorms. Mostly cloudy.21 mph89%29.83 "Hg1 mi
9:00 pm86 °FLight rain. Partly cloudy.23 mph75%29.83 "Hg2 mi
8:30 pm86 °FPassing clouds.12 mph75%29.74 "Hg2 mi
8:00 pm86 °FPassing clouds.13 mph75%29.74 "Hg2 mi
7:30 pm86 °FPassing clouds.14 mph75%29.71 "Hg2 mi
7:00 pm88 °FPassing clouds.15 mph75%29.68 "Hg2 mi
6:30 pm88 °FScattered clouds.16 mph70%29.65 "Hg2 mi
6:00 pm90 °FScattered clouds.13 mph67%29.68 "Hg2 mi
5:30 pm90 °FScattered clouds.16 mph71%29.65 "Hg2 mi
5:00 pm91 °FScattered clouds.17 mph67%29.65 "Hg2 mi
4:30 pm93 °FScattered clouds.14 mph59%29.65 "Hg2 mi
4:00 pm93 °FScattered clouds.17 mph59%29.68 "Hg2 mi
3:30 pm95 °FScattered clouds.17 mph56%29.68 "Hg2 mi
3:00 pm97 °FScattered clouds.18 mph50%29.68 "Hg2 mi
2:30 pm97 °FHaze.17 mph47%29.68 "Hg2 mi
2:00 pm99 °FHaze.15 mph44%29.71 "Hg2 mi
1:30 pm99 °FHaze.15 mph44%29.71 "Hg2 mi
1:00 pm97 °FHaze.16 mph47%29.71 "Hg2 mi
12:30 pm97 °FHaze.15 mph47%29.71 "Hg2 mi
12:00 pm95 °FHaze.14 mph53%29.74 "Hg2 mi
11:30 am93 °FHaze.13 mph56%29.77 "Hg2 mi
11:00 am93 °FHaze.13 mph56%29.77 "Hg2 mi
10:30 am91 °FHaze.13 mph59%29.77 "Hg2 mi
10:00 am91 °FHaze.14 mph63%29.77 "Hg2 mi
9:30 am91 °FHaze.17 mph63%29.77 "Hg2 mi
9:00 am90 °FHaze.17 mph67%29.77 "Hg2 mi
8:30 am88 °FHaze.16 mph70%29.77 "Hg2 mi
8:00 am88 °FScattered clouds.16 mph75%29.77 "Hg2 mi
Weather by CustomWeather, © 2017

See weather overviewHow to use our weather pages